User: anonymous   Login
Location: Fort Wayne
(41.1310°N, 85.1290°W)
Time: 13:04:47
(UTC-05:00)
Language:

COSMOS 2428 - Orbit

View from above orbital plane
View from above orbital plane
View from above satellite
View from above satellite

Ground track
Ground track

The orbit data is extracted from the following two-line orbital elements,

1 31792U 07029A   17058.48877957 -.00000076  00000-0 -15324-4 0  9990
2 31792  70.9129 282.4412 0005083  89.7780 270.3923 14.12255115498587
Epoch (UTC): 27 February 2017 11:43:50
Eccentricity: 0.0005083
inclination: 70.9129°
perigee height: 848 km
apogee height: 855 km
right ascension of ascending node: 282.4412°
argument of perigee: 89.7780°
revolutions per day: 14.12255115
mean anomaly at epoch: 270.3923°
orbit number at epoch: 49858

The dashed part of the orbit path shows where the satellite is in the earth's shadow,  

DLR